Skip Page Navigation
NASA JPL Caltech
NASA Logo - Jet Propulsion Laboratory + View the NASA Portal
+ Center for Near-Earth Object Studies
JPL Home Earth Solar System Stars & Galaxies Technology
JPL Solar System Dynamics
BODIES ORBITS EPHEMERIDES TOOLS PHYSICAL DATA DISCOVERY FAQ SITE MAP
JPL Small-Body Database Browser
Search: [ help ]  
215205 (2000 SB224)
Classification: Main-belt Asteroid          SPK-ID: 2215205
Ephemeris | Orbit Diagram | Orbital Elements | Mission Design | Physical Parameters | Discovery Circumstances | Close-Approach Data ]

[ show orbit diagram ]
Orbital Elements at Epoch 2459000.5 (2020-May-31.0) TDB
Reference: JPL 12 (heliocentric ecliptic J2000)
 Element Value Uncertainty (1-sigma)   Units 
e .1630495221586819 7.0934e-08  
a 3.138735312417458 2.7493e-08 au
q 2.62696601954521 2.1872e-07 au
i 7.617999732515384 7.7691e-06 deg
node 25.70963703359364 3.3582e-05 deg
peri 3.516997122729006 3.6579e-05 deg
M 184.3114978346553 1.6947e-05 deg
tp 2459991.722853606869
(2023-Feb-16.22285361)
0.00010406 TDB
period 2031.096075727492
5.56
2.6687e-05
7.307e-08
d
yr
n .1772442004601167 2.3288e-09 deg/d
Q 3.650504605289705 3.1976e-08 au
  Orbit Determination Parameters
   # obs. used (total)      361  
   data-arc span      7209 days (19.74 yr)  
   first obs. used      2000-09-27  
   last obs. used      2020-06-23  
   planetary ephem.      DE431  
   SB-pert. ephem.      SB431-N16  
   condition code      0  
   norm. resid. RMS      .5675  
   source      ORB  
   producer      Otto Matic  
   solution date      2020-Nov-12 03:43:26  

Additional Information
 Earth MOID = 1.6321 au 
 Jupiter MOID = 1.80446 au 
 T_jup = 3.177 
[ show covariance matrix ]

Ephemeris | Orbit Diagram | Orbital Elements | Mission Design | Physical Parameters | Discovery Circumstances | Close-Approach Data ]

Physical Parameter Table
Parameter Symbol Value Units Sigma Reference Notes
absolute magnitude H 15.6   n/a MPO385935  

215205 (2000 SB224)          Discovered 2000-Sep-27 by LINEAR at Socorro
Reference: 20090607/Numbers.arcLast Updated: 2009-06-08

[ show close-approach data ]
Ephemeris | Orbit Diagram | Orbital Elements | Mission Design | Physical Parameters | Discovery Circumstances | Close-Approach Data ]
ABOUT SSD CREDITS/AWARDS PRIVACY/COPYRIGHT GLOSSARY LINKS
FirstGov 2020-Nov-27 13:02 UT
(server date/time)  
NASA Home Page
Site Manager:   Ryan S. Park
Webmaster  Alan B. Chamberlin